Lakehurst NAS, NJ

5:48 PM EDT on July 24, 2017 (GMT -0400)
Lakehurst Naes

Weather History for KNEL - April, 2013

Change the Weather History Date:

Tuesday, April 23, 2013

  Actual Average Record
Temperature  
Mean Temperature 52 °F -  
Max Temperature 52 °F 60 °F 84 °F (2001)
Min Temperature 48 °F 43 °F 41 °F (2002)
Degree Days  
Heating Degree Days 12    
Growing Degree Days 2 (Base 50)    
Moisture  
Dew Point 39 °F    
Average Humidity 63    
Maximum Humidity 77    
Minimum Humidity 53    
Precipitation  
Precipitation 0.00 in - - ()
Sea Level Pressure  
Sea Level Pressure 30.27 in    
Wind  
Wind Speed 10 mph (NNE)    
Max Wind Speed 16 mph    
Max Gust Speed 24 mph    
Averages and records for this station are not official NWS values.
T = Trace of Precipitation, MM = Missing Value Source: NWS Daily Summary

Daily Weather History Graph

Daily Weather History Graph

Search for Another Location

Airport or City:

Trip Planner

Search our weather history database for the weather conditions in past years. The results will help you decide how hot, cold, wet, or windy it might be!

Date:

Astronomy

Apr. 23, 2013 Rise Set
Actual Time 6:07 AM EDT 7:44 PM EDT
Civil Twilight 5:39 AM EDT 8:13 PM EDT
Nautical Twilight 5:04 AM EDT 8:47 PM EDT
Astronomical Twilight 4:27 AM EDT 9:24 PM EDT
Moon 5:36 PM EDT (4/23) 4:34 AM EDT (4/23)
Length of Visible Light 14h 34m
Length of Day
13h 36m
Waxing Gibbous, 94% of the Moon is Illuminated
Apr 23
Waxing Gibbous
Apr 25
Full
May 2
Last Quarter
May 9
New
May 18
First Quarter

Hourly Weather History & Observations

Time (EDT) Temp. Dew Point Humidity Pressure Visibility Wind Dir Wind Speed Gust Speed Precip Events Conditions
12:00 AM 51.1 °F 37.0 °F 59% 30.46 in - East 11.5 mph - N/A   Overcast
1:00 AM 51.1 °F 37.0 °F 59% 30.44 in - ENE 15.0 mph 20.7 mph N/A   Overcast
1:18 AM 50.0 °F 35.6 °F 58% 30.43 in - ENE 16.1 mph 21.9 mph N/A   Overcast
3:00 AM 50.0 °F 35.1 °F 57% 30.39 in - ENE 16.1 mph 24.2 mph N/A   Overcast
3:37 AM 50.0 °F 35.6 °F 58% 30.37 in - ENE 16.1 mph 23.0 mph N/A   Overcast
4:00 AM 50.0 °F 36.0 °F 59% 30.37 in - NE 9.2 mph - N/A   Overcast
5:00 AM 50.0 °F 36.0 °F 59% 30.36 in - NE 9.2 mph 16.1 mph N/A   Overcast
6:00 AM 51.1 °F 36.0 °F 56% 30.35 in - NE 10.4 mph 17.3 mph N/A   Overcast
7:00 AM 48.9 °F 36.0 °F 61% 30.35 in - NNE 6.9 mph - N/A   Overcast
8:00 AM 48.9 °F 35.1 °F 59% 30.34 in - NE 6.9 mph - N/A   Overcast
10:00 AM 52.0 °F 37.9 °F 59% 30.32 in - NE 10.4 mph 17.3 mph N/A   Overcast
10:32 AM 50.0 °F 37.4 °F 62% 30.32 in - NNE 9.2 mph 16.1 mph N/A   Overcast
11:00 AM 48.0 °F 39.9 °F 74% 30.31 in - NE 9.2 mph - N/A   Overcast
11:21 AM 51.8 °F 41.0 °F 67% 30.31 in - NE 8.1 mph - 0.00 in Rain Light Rain
11:44 AM 50.0 °F 41.0 °F 71% 30.30 in - NE 8.1 mph - 0.00 in   Overcast
12:08 PM 48.2 °F 41.0 °F 76% 30.29 in - NE 9.2 mph - N/A   Overcast
1:00 PM 48.9 °F 42.1 °F 77% 30.25 in - NE 9.2 mph - N/A   Overcast
2:00 PM 48.9 °F 41.0 °F 74% 30.23 in - Variable 3.5 mph - N/A   Overcast
2:50 PM 50.0 °F 41.0 °F 71% 30.21 in - NE 5.8 mph - N/A   Overcast
4:00 PM 51.8 °F 41.0 °F 67% 30.21 in - NNE 6.9 mph - N/A   Overcast
4:06 PM 50.0 °F 41.0 °F 71% 30.21 in - North 8.1 mph - N/A   Overcast
5:00 PM 52.0 °F 41.0 °F 66% 30.21 in - NNW 5.8 mph - N/A   Overcast
6:00 PM 53.1 °F 41.0 °F 64% 30.17 in - Variable 4.6 mph - N/A   Overcast
6:11 PM 53.6 °F 41.0 °F 62% 30.18 in - Variable 4.6 mph - N/A   Overcast
6:32 PM 53.6 °F 41.0 °F 62% 30.17 in - North 3.5 mph - N/A   Overcast
7:38 PM 51.8 °F 41.0 °F 67% 30.14 in - NNW 3.5 mph - N/A   Overcast
8:00 PM 52.0 °F 41.0 °F 66% 30.12 in - Variable 4.6 mph - N/A   Overcast
9:00 PM 57.0 °F 41.0 °F 55% 30.13 in - NW 3.5 mph - N/A   Overcast
10:00 PM 57.0 °F 41.0 °F 55% 30.14 in - WNW 4.6 mph - N/A   Overcast
11:00 PM 57.9 °F 41.0 °F 53% 30.12 in - WNW 6.9 mph - N/A   Overcast
11:45 PM 51.8 °F 39.2 °F 62% 30.11 in - NW 3.5 mph - N/A   Partly Cloudy